Weather History for Lincoln, NE

Change the Weather History Date:

Tuesday, April 16, 2013

  Actual Average Record
Temperature  
Mean Temperature 43 °F 52 °F  
Max Temperature 50 °F 65 °F 91 °F (1964)
Min Temperature 35 °F 39 °F 21 °F (1904)
Degree Days  
Heating Degree Days 22 14  
Month to date heating degree days 325 260  
Since 1 July heating degree days 5882 5736  
Cooling Degree Days 0 0  
Month to date cooling degree days 0 0  
Year to date cooling degree days 0 1  
Moisture  
Dew Point 28 °F    
Average Humidity 61    
Maximum Humidity 82    
Minimum Humidity 39    
Precipitation  
Precipitation 0.00 in 0.09 in 1.52 in (1969)
Month to date precipitation 1.64 1.23  
Year to date precipitation 5.03 4.57  
Snow  
Snow 0.00 in 0.00 in - ()
Month to date snowfall 0.5 1.0  
Since 1 July snowfall 24.7 25.5  
Snow Depth 0.00 in    
Sea Level Pressure  
Sea Level Pressure 30.18 in    
Wind  
Wind Speed 12 mph (NE)    
Max Wind Speed 21 mph    
Max Gust Speed 25 mph    
Visibility 10 miles    
Events      
T = Trace of Precipitation, MM = Missing Value Source: NWS Daily Summary

Daily Weather History Graph

Daily Weather History Graph

Search for Another Location

Airport:

Trip Planner

Search our weather history database for the weather conditions in past years. The results will help you decide how hot, cold, wet, or windy it might be!

Date:

Astronomy

Apr. 16, 2013 Rise Set
Actual Time 6:46 AM CDT 8:08 PM CDT
Civil Twilight 6:17 AM CDT 8:36 PM CDT
Nautical Twilight 5:43 AM CDT 9:10 PM CDT
Astronomical Twilight 5:07 AM CDT 9:47 PM CDT
Moon 11:04 AM CDT (4/16) 1:07 AM CDT (4/16)
Length of Visible Light 14h 18m
Length of Day
13h 21m
Waxing Crescent, 33% of the Moon is Illuminated
Apr 16
Waxing Crescent
Apr 18
First Quarter
Apr 25
Full
May 2
Last Quarter
May 9
New

Hourly Weather History & Observations

Time (CDT) Temp. Windchill Dew Point Humidity Pressure Visibility Wind Dir Wind Speed Gust Speed Precip Events Conditions
12:54 AM 37.9 °F 30.0 °F 28.9 °F 70% 30.12 in 10.0 mi NNE 12.7 mph - N/A   Clear
1:54 AM 37.0 °F 30.4 °F 28.9 °F 73% 30.12 in 10.0 mi NNE 9.2 mph - N/A   Clear
2:54 AM 36.0 °F 31.1 °F 30.0 °F 79% 30.13 in 10.0 mi NNE 5.8 mph - N/A   Clear
3:54 AM 37.0 °F 30.4 °F 28.9 °F 73% 30.17 in 10.0 mi NNE 9.2 mph - N/A   Mostly Cloudy
4:54 AM 36.0 °F 28.0 °F 28.9 °F 76% 30.17 in 10.0 mi NNE 11.5 mph - N/A   Overcast
5:54 AM 36.0 °F 27.5 °F 27.0 °F 70% 30.18 in 10.0 mi NNE 12.7 mph - N/A   Overcast
6:54 AM 35.6 °F 28.0 °F 26.6 °F 70% 30.18 in 10.0 mi NNE 10.4 mph - N/A   Overcast
7:54 AM 36.0 °F 29.6 °F 27.0 °F 70% 30.24 in 10.0 mi NE 8.1 mph - N/A   Overcast
8:54 AM 36.0 °F 28.0 °F 27.0 °F 70% 30.26 in 10.0 mi NNE 11.5 mph - N/A   Overcast
9:54 AM 39.0 °F 31.4 °F 27.0 °F 62% 30.27 in 10.0 mi NNE 12.7 mph - N/A   Overcast
10:54 AM 42.1 °F 34.9 °F 26.1 °F 53% 30.27 in 10.0 mi NE 13.8 mph - N/A   Overcast
11:54 AM 44.1 °F 36.8 °F 26.1 °F 49% 30.25 in 10.0 mi NE 16.1 mph 25.3 mph N/A   Overcast
12:54 PM 46.0 °F 39.6 °F 27.0 °F 47% 30.23 in 10.0 mi ENE 15.0 mph 23.0 mph N/A   Overcast
1:54 PM 48.0 °F - 27.0 °F 44% 30.20 in 10.0 mi ENE 13.8 mph - N/A   Overcast
2:54 PM 48.0 °F - 27.0 °F 44% 30.19 in 10.0 mi NE 13.8 mph 20.7 mph N/A   Overcast
3:54 PM 48.0 °F - 27.0 °F 44% 30.17 in 10.0 mi ENE 11.5 mph - N/A   Overcast
4:54 PM 50.0 °F - 28.0 °F 43% 30.16 in 10.0 mi ENE 13.8 mph - N/A   Overcast
5:54 PM 50.0 °F - 27.0 °F 41% 30.14 in 10.0 mi ENE 17.3 mph - N/A   Overcast
6:54 PM 50.0 °F - 26.1 °F 39% 30.13 in 10.0 mi ENE 15.0 mph - N/A   Overcast
7:54 PM 48.9 °F - 28.0 °F 44% 30.14 in 10.0 mi East 15.0 mph - N/A   Overcast
8:54 PM 48.0 °F - 30.9 °F 52% 30.15 in 10.0 mi ENE 13.8 mph - N/A   Overcast
9:54 PM 46.9 °F - 32.0 °F 56% 30.17 in 10.0 mi East 15.0 mph - N/A   Overcast
10:54 PM 46.0 °F 39.9 °F 32.0 °F 58% 30.17 in 10.0 mi East 13.8 mph - N/A   Overcast
11:54 PM 46.0 °F 41.4 °F 33.1 °F 61% 30.17 in 10.0 mi ENE 9.2 mph - N/A   Overcast